Location: El Limón
(10.3059°N, 67.6321°W)
Time: 12:19:52
(UTC+00:00)

Cosmos 1862 Rocket - Pass Details

Date: 14 April 2024
Orbit: 600 x 630 km, 82.5° (Epoch: 30 May)

Event Time Altitude Azimuth Distance (km) Brightness Sun altitude
Rises 09:47:37 0° 183° (S) 2,909 6.9 -8.7°
Reaches altitude 10° 09:49:51 10° 183° (S) 2,001 6.0 -8.2°
Maximum altitude 09:54:18 88° 96° (E) 630 3.6 -7.1°
Drops below altitude 10° 09:58:43 10° 5° (N) 1,987 6.4 -6.0°
Sets 10:00:56 0° 5° (N) 2,889 7.2 -5.5°
